STARLINK-34596

Last updated on Sat Jul 19 2025 00:02:08 GMT+0000 (Coordinated Universal Time)

1 64732U 25144J 25199.58335648 -.01533752 00000+0 -13056-1 0 9999 2 64732 53.1586 192.1991 0001294 66.6534 33.1507 15.71643824 3845
UTC large
Height (km)
Speed (km/s)
/
Latitude / Longitude
Inclination (degrees)
Orbital Period (minutes)
Azimuth
Elevation
Range (km)
Doppler Factor

Next 0 passes for location: London (51.5072 / 0.1276)

Sorry there are no passes over London.